User: anonymous   Login
Location: Casteau
(50.5142°N, 4.0161°E)
Time: 22:49:31
(UTC+00:00)
Language:

Cosmos 1844 Rocket - Orbit

View from above orbital plane
View from above orbital plane
View from above satellite
View from above satellite

Ground track
Ground track

The orbit data is extracted from the following two-line orbital elements,

1 17974U 87041B   20327.98084322  .00000141  00000-0  93201-4 0  9993
2 17974  71.0062 146.0542 0016290 276.4588 196.1955 14.17271154734469
Epoch (UTC): 22 November 2020 23:32:24
Eccentricity: 0.0016290
inclination: 71.0062°
perigee height: 823 km
apogee height: 846 km
right ascension of ascending node: 146.0542°
argument of perigee: 276.4588°
revolutions per day: 14.17271154
mean anomaly at epoch: 196.1955°
orbit number at epoch: 73446

The dashed part of the orbit path shows where the satellite is in the earth's shadow,  

DLR